Time,TemperatureF,DewpointF,PressureIn,WindDirection,WindDirectionDegrees,WindSpeedMPH,WindSpeedGustMPH,Humidity,HourlyPrecipIn,Conditions,Clouds,dailyrainin,SoftwareType,DateUTC
2013-02-04 00:01:00,27.0,16.0,30.31,WSW,251,0.0,-999.0,63,-99.99,,,-99.99,,2013-02-04 07:01:00,
2013-02-04 00:11:00,27.0,16.0,30.31,WSW,251,0.0,-999.0,63,-99.99,,,-99.99,,2013-02-04 07:11:00,
2013-02-04 00:21:00,25.0,14.0,30.32,North,355,0.0,-999.0,62,-99.99,,,-99.99,,2013-02-04 07:21:00,
2013-02-04 00:31:00,20.0,12.0,30.32,North,355,1.0,-999.0,72,-99.99,,,-99.99,,2013-02-04 07:31:00,
2013-02-04 00:42:00,20.0,12.0,30.32,North,355,1.0,-999.0,72,-99.99,,,-99.99,,2013-02-04 07:42:00,
2013-02-04 00:52:00,19.0,13.0,30.31,North,360,0.0,-999.0,76,-99.99,,,-99.99,,2013-02-04 07:52:00,
2013-02-04 01:01:00,21.0,15.0,30.30,WNW,287,0.0,-999.0,76,-99.99,,,-99.99,,2013-02-04 08:01:00,
2013-02-04 01:11:00,21.0,15.0,30.30,WNW,287,0.0,-999.0,76,-99.99,,,-99.99,,2013-02-04 08:11:00,
2013-02-04 01:21:00,24.0,15.0,30.29,WSW,242,0.0,-999.0,67,-99.99,,,-99.99,,2013-02-04 08:21:00,
2013-02-04 01:31:00,26.0,15.0,30.29,SW,227,3.0,-999.0,62,-99.99,,,-99.99,,2013-02-04 08:31:00,
2013-02-04 01:41:00,26.0,15.0,30.29,SW,227,3.0,-999.0,62,-99.99,,,-99.99,,2013-02-04 08:41:00,
2013-02-04 01:52:00,27.0,15.0,30.29,South,190,1.0,-999.0,60,-99.99,,,-99.99,,2013-02-04 08:52:00,
2013-02-04 02:01:00,27.0,15.0,30.29,SSE,166,2.0,-999.0,60,-99.99,,,-99.99,,2013-02-04 09:01:00,
2013-02-04 02:11:00,27.0,15.0,30.29,SSE,166,2.0,-999.0,60,-99.99,,,-99.99,,2013-02-04 09:11:00,
2013-02-04 02:21:00,28.0,14.0,30.29,South,169,1.0,-999.0,55,-99.99,,,-99.99,,2013-02-04 09:21:00,
2013-02-04 02:31:00,28.0,14.0,30.29,SE,143,4.0,-999.0,55,-99.99,,,-99.99,,2013-02-04 09:31:00,
2013-02-04 02:41:00,28.0,14.0,30.29,SE,143,4.0,-999.0,55,-99.99,,,-99.99,,2013-02-04 09:41:00,
2013-02-04 02:52:00,28.0,14.0,30.28,SE,138,1.0,-999.0,55,-99.99,,,-99.99,,2013-02-04 09:52:00,
2013-02-04 03:01:00,27.0,13.0,30.28,SE,136,1.0,-999.0,55,-99.99,,,-99.99,,2013-02-04 10:01:00,
2013-02-04 03:11:00,27.0,13.0,30.28,SE,136,1.0,-999.0,55,-99.99,,,-99.99,,2013-02-04 10:11:00,
2013-02-04 03:21:00,28.0,13.0,30.27,SE,134,0.0,-999.0,53,-99.99,,,-99.99,,2013-02-04 10:21:00,
2013-02-04 03:32:00,27.0,13.0,30.26,East,94,0.0,-999.0,54,-99.99,,,-99.99,,2013-02-04 10:32:00,
2013-02-04 03:41:00,27.0,13.0,30.26,East,94,0.0,-999.0,54,-99.99,,,-99.99,,2013-02-04 10:41:00,
2013-02-04 03:52:00,26.0,15.0,30.27,NNW,346,1.0,-999.0,62,-99.99,,,-99.99,,2013-02-04 10:52:00,
2013-02-04 04:01:00,26.0,15.0,30.27,NNW,346,1.0,-999.0,62,-99.99,,,-99.99,,2013-02-04 11:01:00,
2013-02-04 04:11:00,26.0,15.0,30.27,NNW,346,1.0,-999.0,62,-99.99,,,-99.99,,2013-02-04 11:11:00,
2013-02-04 04:22:00,19.0,13.0,30.26,NE,36,1.0,-999.0,77,-99.99,,,-99.99,,2013-02-04 11:22:00,
2013-02-04 04:32:00,20.0,14.0,30.25,NW,323,0.0,-999.0,78,-99.99,,,-99.99,,2013-02-04 11:32:00,
2013-02-04 04:42:00,20.0,14.0,30.25,NW,323,0.0,-999.0,78,-99.99,,,-99.99,,2013-02-04 11:42:00,
2013-02-04 04:52:00,22.0,15.0,30.25,NW,325,0.0,-999.0,73,-99.99,,,-99.99,,2013-02-04 11:52:00,
2013-02-04 05:02:00,24.0,15.0,30.24,NNW,338,0.0,-999.0,69,-99.99,,,-99.99,,2013-02-04 12:02:00,
2013-02-04 05:12:00,24.0,15.0,30.24,NNW,338,0.0,-999.0,69,-99.99,,,-99.99,,2013-02-04 12:12:00,
2013-02-04 05:21:00,27.0,15.0,30.24,ENE,65,0.0,-999.0,60,-99.99,,,-99.99,,2013-02-04 12:21:00,
2013-02-04 05:32:00,27.0,15.0,30.24,ENE,65,0.0,-999.0,60,-99.99,,,-99.99,,2013-02-04 12:32:00,
2013-02-04 05:42:00,27.0,15.0,30.24,ENE,65,0.0,-999.0,60,-99.99,,,-99.99,,2013-02-04 12:42:00,
2013-02-04 05:52:00,28.0,14.0,30.25,ENE,65,0.0,-999.0,56,-99.99,,,-99.99,,2013-02-04 12:52:00,
2013-02-04 06:01:00,28.0,13.0,30.25,WNW,288,0.0,-999.0,53,-99.99,,,-99.99,,2013-02-04 13:01:00,
2013-02-04 06:11:00,30.0,13.0,30.24,SW,232,1.0,-999.0,49,-99.99,,,-99.99,,2013-02-04 13:11:00,
2013-02-04 06:21:00,30.0,13.0,30.24,SW,232,1.0,-999.0,49,-99.99,,,-99.99,,2013-02-04 13:21:00,
2013-02-04 06:32:00,30.0,13.0,30.24,SW,232,1.0,-999.0,49,-99.99,,,-99.99,,2013-02-04 13:32:00,
2013-02-04 06:41:00,30.0,13.0,30.24,SW,232,1.0,-999.0,49,-99.99,,,-99.99,,2013-02-04 13:41:00,
2013-02-04 06:51:00,31.0,13.0,30.24,WNW,283,4.0,-999.0,47,-99.99,,,-99.99,,2013-02-04 13:51:00,
2013-02-04 07:02:00,31.0,13.0,30.23,WSW,238,6.0,-999.0,47,-99.99,,,-99.99,,2013-02-04 14:02:00,
2013-02-04 07:11:00,31.0,13.0,30.23,WSW,238,6.0,-999.0,47,-99.99,,,-99.99,,2013-02-04 14:11:00,
2013-02-04 07:21:00,32.0,14.0,30.22,SW,234,11.0,-999.0,46,-99.99,,,-99.99,,2013-02-04 14:21:00,
2013-02-04 07:32:00,32.0,14.0,30.23,SSE,156,1.0,-999.0,46,-99.99,,,-99.99,,2013-02-04 14:32:00,
2013-02-04 07:42:00,32.0,14.0,30.23,SSE,156,1.0,-999.0,46,-99.99,,,-99.99,,2013-02-04 14:42:00,
2013-02-04 07:52:00,32.0,14.0,30.22,WNW,283,6.0,-999.0,46,-99.99,,,-99.99,,2013-02-04 14:52:00,
2013-02-04 08:03:00,35.0,14.0,30.21,West,273,16.0,-999.0,41,-99.99,,,-99.99,,2013-02-04 15:03:00,
2013-02-04 08:22:00,36.0,14.0,30.21,WNW,282,16.0,-999.0,40,-99.99,,,-99.99,,2013-02-04 15:22:00,
2013-02-04 08:33:00,38.0,14.0,30.21,West,267,19.0,-999.0,37,-99.99,,,-99.99,,2013-02-04 15:33:00,
2013-02-04 08:43:00,38.0,14.0,30.21,West,267,19.0,-999.0,37,-99.99,,,-99.99,,2013-02-04 15:43:00,
2013-02-04 08:52:00,38.0,14.0,30.20,WSW,257,18.0,-999.0,37,-99.99,,,-99.99,,2013-02-04 15:52:00,
2013-02-04 09:02:00,38.0,15.0,30.19,West,275,22.0,-999.0,38,-99.99,,,-99.99,,2013-02-04 16:02:00,
2013-02-04 09:21:00,38.0,15.0,30.18,NW,317,26.0,-999.0,38,-99.99,,,-99.99,,2013-02-04 16:21:00,
2013-02-04 09:32:00,39.0,15.0,30.19,West,279,20.0,-999.0,37,-99.99,,,-99.99,,2013-02-04 16:32:00,
2013-02-04 09:42:00,39.0,15.0,30.19,West,279,20.0,-999.0,37,-99.99,,,-99.99,,2013-02-04 16:42:00,
2013-02-04 09:51:00,40.0,15.0,30.20,WNW,290,14.0,-999.0,36,-99.99,,,-99.99,,2013-02-04 16:51:00,
2013-02-04 10:02:00,42.0,16.0,30.19,NW,307,18.0,-999.0,34,-99.99,,,-99.99,,2013-02-04 17:02:00,
2013-02-04 10:31:00,44.0,16.0,30.20,NW,320,11.0,-999.0,32,-99.99,,,-99.99,,2013-02-04 17:31:00,
2013-02-04 10:42:00,44.0,16.0,30.20,NW,320,11.0,-999.0,32,-99.99,,,-99.99,,2013-02-04 17:42:00,
2013-02-04 10:51:00,45.0,16.0,30.19,WNW,291,13.0,-999.0,31,-99.99,,,-99.99,,2013-02-04 17:51:00,
2013-02-04 11:03:00,45.0,15.0,30.19,WNW,289,20.0,-999.0,30,-99.99,,,-99.99,,2013-02-04 18:03:00,
2013-02-04 11:21:00,45.0,15.0,30.18,WNW,289,20.0,-999.0,29,-99.99,,,-99.99,,2013-02-04 18:21:00,
2013-02-04 11:31:00,46.0,16.0,30.18,WSW,257,14.0,-999.0,29,-99.99,,,-99.99,,2013-02-04 18:31:00,
2013-02-04 11:41:00,46.0,16.0,30.18,WSW,257,14.0,-999.0,29,-99.99,,,-99.99,,2013-02-04 18:41:00,
2013-02-04 11:52:00,48.0,16.0,30.17,WNW,282,15.0,-999.0,28,-99.99,,,-99.99,,2013-02-04 18:52:00,
2013-02-04 12:01:00,48.0,16.0,30.17,WNW,282,15.0,-999.0,28,-99.99,,,-99.99,,2013-02-04 19:01:00,
2013-02-04 12:21:00,47.0,17.0,30.16,WNW,282,21.0,-999.0,30,-99.99,,,-99.99,,2013-02-04 19:21:00,
2013-02-04 12:31:00,48.0,17.0,30.14,NW,326,16.0,-999.0,29,-99.99,,,-99.99,,2013-02-04 19:31:00,
2013-02-04 12:41:00,48.0,17.0,30.14,NW,326,16.0,-999.0,29,-99.99,,,-99.99,,2013-02-04 19:41:00,
2013-02-04 12:51:00,47.0,18.0,30.13,WNW,286,17.0,-999.0,31,-99.99,,,-99.99,,2013-02-04 19:51:00,
2013-02-04 13:01:00,48.0,18.0,30.12,NW,308,18.0,-999.0,30,-99.99,,,-99.99,,2013-02-04 20:01:00,
2013-02-04 13:11:00,48.0,18.0,30.12,NW,308,18.0,-999.0,30,-99.99,,,-99.99,,2013-02-04 20:11:00,
2013-02-04 13:21:00,49.0,18.0,30.11,WNW,284,20.0,-999.0,29,-99.99,,,-99.99,,2013-02-04 20:21:00,
2013-02-04 13:32:00,49.0,18.0,30.10,WNW,294,21.0,-999.0,29,-99.99,,,-99.99,,2013-02-04 20:32:00,
2013-02-04 13:42:00,49.0,18.0,30.10,WNW,294,21.0,-999.0,29,-99.99,,,-99.99,,2013-02-04 20:42:00,
2013-02-04 13:52:00,49.0,19.0,30.11,WNW,283,20.0,-999.0,30,-99.99,,,-99.99,,2013-02-04 20:52:00,
2013-02-04 14:01:00,49.0,19.0,30.10,WNW,302,21.0,-999.0,30,-99.99,,,-99.99,,2013-02-04 21:01:00,
2013-02-04 14:11:00,49.0,19.0,30.10,WNW,302,21.0,-999.0,30,-99.99,,,-99.99,,2013-02-04 21:11:00,
2013-02-04 14:22:00,49.0,18.0,30.10,WNW,286,22.0,-999.0,29,-99.99,,,-99.99,,2013-02-04 21:22:00,
2013-02-04 14:31:00,48.0,19.0,30.10,WNW,296,22.0,-999.0,31,-99.99,,,-99.99,,2013-02-04 21:31:00,
2013-02-04 14:42:00,48.0,19.0,30.10,WNW,296,22.0,-999.0,31,-99.99,,,-99.99,,2013-02-04 21:42:00,
2013-02-04 14:51:00,47.0,19.0,30.10,WNW,290,22.0,-999.0,32,-99.99,,,-99.99,,2013-02-04 21:51:00,
2013-02-04 15:02:00,47.0,19.0,30.09,WNW,289,27.0,-999.0,32,-99.99,,,-99.99,,2013-02-04 22:02:00,
2013-02-04 15:12:00,47.0,19.0,30.09,WNW,289,27.0,-999.0,32,-99.99,,,-99.99,,2013-02-04 22:12:00,
2013-02-04 15:21:00,47.0,19.0,30.09,WNW,288,23.0,-999.0,33,-99.99,,,-99.99,,2013-02-04 22:21:00,
2013-02-04 15:32:00,47.0,19.0,30.08,WNW,290,27.0,-999.0,32,-99.99,,,-99.99,,2013-02-04 22:32:00,
2013-02-04 15:41:00,47.0,19.0,30.08,WNW,290,27.0,-999.0,32,-99.99,,,-99.99,,2013-02-04 22:41:00,
2013-02-04 15:51:00,48.0,20.0,30.08,WNW,289,27.0,-999.0,32,-99.99,,,-99.99,,2013-02-04 22:51:00,
2013-02-04 16:01:00,48.0,20.0,30.08,WNW,294,23.0,-999.0,32,-99.99,,,-99.99,,2013-02-04 23:01:00,
2013-02-04 16:11:00,48.0,20.0,30.08,WNW,294,23.0,-999.0,32,-99.99,,,-99.99,,2013-02-04 23:11:00,
2013-02-04 16:21:00,48.0,20.0,30.08,WNW,292,19.0,-999.0,32,-99.99,,,-99.99,,2013-02-04 23:21:00,
2013-02-04 16:32:00,48.0,20.0,30.07,WNW,296,17.0,-999.0,32,-99.99,,,-99.99,,2013-02-04 23:32:00,
2013-02-04 16:41:00,48.0,20.0,30.07,WNW,296,17.0,-999.0,32,-99.99,,,-99.99,,2013-02-04 23:41:00,
2013-02-04 16:52:00,47.0,19.0,30.08,WNW,292,18.0,-999.0,32,-99.99,,,-99.99,,2013-02-04 23:52:00,
2013-02-04 17:01:00,46.0,19.0,30.06,WNW,290,26.0,-999.0,34,-99.99,,,-99.99,,2013-02-05 00:01:00,
2013-02-04 17:11:00,46.0,19.0,30.06,WNW,290,26.0,-999.0,34,-99.99,,,-99.99,,2013-02-05 00:11:00,
2013-02-04 17:21:00,45.0,19.0,30.06,WNW,286,30.0,-999.0,35,-99.99,,,-99.99,,2013-02-05 00:21:00,
2013-02-04 17:31:00,45.0,20.0,30.06,West,281,27.0,-999.0,36,-99.99,,,-99.99,,2013-02-05 00:31:00,
2013-02-04 17:41:00,45.0,20.0,30.06,West,281,27.0,-999.0,36,-99.99,,,-99.99,,2013-02-05 00:41:00,
2013-02-04 17:51:00,44.0,19.0,30.05,WNW,288,29.0,-999.0,36,-99.99,,,-99.99,,2013-02-05 00:51:00,
2013-02-04 18:01:00,44.0,19.0,30.04,WNW,287,27.0,-999.0,37,-99.99,,,-99.99,,2013-02-05 01:01:00,
2013-02-04 18:11:00,44.0,19.0,30.04,WNW,287,27.0,-999.0,37,-99.99,,,-99.99,,2013-02-05 01:11:00,
2013-02-04 18:21:00,43.0,19.0,30.04,WNW,294,28.0,-999.0,37,-99.99,,,-99.99,,2013-02-05 01:21:00,
2013-02-04 18:32:00,43.0,19.0,30.05,WNW,293,26.0,-999.0,38,-99.99,,,-99.99,,2013-02-05 01:32:00,
2013-02-04 18:42:00,43.0,19.0,30.05,WNW,293,26.0,-999.0,38,-99.99,,,-99.99,,2013-02-05 01:42:00,
2013-02-04 18:51:00,43.0,19.0,30.05,WNW,291,23.0,-999.0,38,-99.99,,,-99.99,,2013-02-05 01:51:00,
2013-02-04 19:01:00,42.0,18.0,30.06,WNW,296,21.0,-999.0,38,-99.99,,,-99.99,,2013-02-05 02:01:00,
2013-02-04 19:11:00,42.0,18.0,30.06,WNW,296,21.0,-999.0,38,-99.99,,,-99.99,,2013-02-05 02:11:00,
2013-02-04 19:21:00,42.0,19.0,30.07,WNW,293,24.0,-999.0,39,-99.99,,,-99.99,,2013-02-05 02:21:00,
2013-02-04 19:31:00,42.0,19.0,30.07,WNW,294,23.0,-999.0,39,-99.99,,,-99.99,,2013-02-05 02:31:00,
2013-02-04 19:41:00,42.0,19.0,30.07,WNW,294,23.0,-999.0,39,-99.99,,,-99.99,,2013-02-05 02:41:00,
2013-02-04 19:52:00,42.0,19.0,30.07,WNW,296,25.0,-999.0,40,-99.99,,,-99.99,,2013-02-05 02:52:00,
2013-02-04 20:01:00,42.0,19.0,30.08,WNW,286,25.0,-999.0,39,-99.99,,,-99.99,,2013-02-05 03:01:00,
2013-02-04 20:11:00,42.0,19.0,30.08,WNW,286,25.0,-999.0,39,-99.99,,,-99.99,,2013-02-05 03:11:00,
2013-02-04 20:21:00,42.0,19.0,30.08,WNW,286,23.0,-999.0,40,-99.99,,,-99.99,,2013-02-05 03:21:00,
2013-02-04 20:31:00,42.0,19.0,30.08,WNW,294,21.0,-999.0,40,-99.99,,,-99.99,,2013-02-05 03:31:00,
2013-02-04 20:41:00,42.0,19.0,30.08,WNW,294,21.0,-999.0,40,-99.99,,,-99.99,,2013-02-05 03:41:00,
2013-02-04 20:51:00,42.0,20.0,30.08,WNW,288,18.0,-999.0,41,-99.99,,,-99.99,,2013-02-05 03:51:00,
2013-02-04 21:01:00,42.0,19.0,30.08,WNW,283,20.0,-999.0,40,-99.99,,,-99.99,,2013-02-05 04:01:00,
2013-02-04 21:11:00,42.0,19.0,30.08,WNW,283,20.0,-999.0,40,-99.99,,,-99.99,,2013-02-05 04:11:00,
2013-02-04 21:21:00,41.0,19.0,30.09,WNW,301,14.0,-999.0,41,-99.99,,,-99.99,,2013-02-05 04:21:00,
2013-02-04 21:31:00,41.0,20.0,30.09,West,281,15.0,-999.0,42,-99.99,,,-99.99,,2013-02-05 04:31:00,
2013-02-04 21:41:00,41.0,20.0,30.09,West,281,15.0,-999.0,42,-99.99,,,-99.99,,2013-02-05 04:41:00,
2013-02-04 21:52:00,41.0,19.0,30.08,WNW,291,19.0,-999.0,41,-99.99,,,-99.99,,2013-02-05 04:52:00,
2013-02-04 22:02:00,41.0,20.0,30.09,WNW,290,12.0,-999.0,42,-99.99,,,-99.99,,2013-02-05 05:02:00,
2013-02-04 22:11:00,41.0,20.0,30.09,WNW,290,12.0,-999.0,42,-99.99,,,-99.99,,2013-02-05 05:11:00,
2013-02-04 22:21:00,41.0,20.0,30.10,WNW,284,11.0,-999.0,42,-99.99,,,-99.99,,2013-02-05 05:21:00,
2013-02-04 22:31:00,40.0,18.0,30.09,West,271,4.0,-999.0,41,-99.99,,,-99.99,,2013-02-05 05:31:00,
2013-02-04 22:42:00,40.0,18.0,30.09,West,271,4.0,-999.0,41,-99.99,,,-99.99,,2013-02-05 05:42:00,
2013-02-04 22:52:00,41.0,19.0,30.08,WNW,290,9.0,-999.0,40,-99.99,,,-99.99,,2013-02-05 05:52:00,
2013-02-04 23:01:00,41.0,19.0,30.08,WNW,290,9.0,-999.0,40,-99.99,,,-99.99,,2013-02-05 06:01:00,
2013-02-04 23:11:00,41.0,19.0,30.08,WNW,290,9.0,-999.0,40,-99.99,,,-99.99,,2013-02-05 06:11:00,
2013-02-04 23:21:00,39.0,18.0,30.09,WNW,300,0.0,-999.0,43,-99.99,,,-99.99,,2013-02-05 06:21:00,
2013-02-04 23:31:00,38.0,19.0,30.10,ESE,114,1.0,-999.0,45,-99.99,,,-99.99,,2013-02-05 06:31:00,
2013-02-04 23:41:00,38.0,19.0,30.10,ESE,114,1.0,-999.0,45,-99.99,,,-99.99,,2013-02-05 06:41:00,
2013-02-04 23:51:00,38.0,19.0,30.10,ENE,60,2.0,-999.0,45,-99.99,,,-99.99,,2013-02-05 06:51:00,